[[{"header":{"parameterUnit":"m.s-1","parameterCategory":1,"la1":30.2992,"la2":30.254,"lo1":-89.0895,"lo2":-89.0443,"dy":0.0025,"dx":0.0025,"nx":19,"ny":19,"refTime":"2026-03-19T09:00:00:Z","depth":0,"parameterNumber":2,"parameterNumberName":"U-component_of_WINDS"},"data":[0,0,0,-0.7598,-0.7601,-0.773,-0.773,-0.7898,-0.79,0,0,0,0,0,0,0,0,0,0,0,-0.756,-0.7561,-0.7598,-0.7601,-0.7729,-0.773,-0.7898,-0.79,0,0,0,0,0,0,0,0,0,0,0,-0.756,-0.7561,-0.7563,-0.7601,-0.7729,-0.773,-0.7898,-0.78,0,0,0,0,0,0,0,0,0,0,-0.7674,-0.7639,-0.7561,-0.7563,-0.7602,-0.7729,-0.773,-0.7795,-0.7806,-0.7841,0,-0.7871,0,-0.7888,-0.7911,-0.7912,0,0,0,-0.7601,-0.763,-0.7665,-0.7563,-0.7603,-0.7729,-0.7672,-0.7801,-0.7813,-0.7856,-0.7874,-0.788,-0.7891,-0.7912,-0.7913,-0.8113,-0.8114,0,0,-0.7594,-0.7584,-0.7656,-0.7673,-0.7651,-0.7667,-0.7676,-0.7808,-0.7828,-0.7874,-0.7884,-0.7894,-0.7914,-0.7915,-0.8112,-0.8114,0,0,0,-0.7573,-0.7579,-0.761,-0.7666,-0.7688,-0.7671,-0.768,-0.7822,-0.7833,-0.7885,-0.7896,-0.7915,-0.7917,-0.8111,-0.8113,-0.8149,0,0,0,-0.7569,-0.7567,-0.7607,-0.7602,-0.7686,-0.7756,-0.7691,-0.7824,-0.7839,-0.7895,-0.7915,-0.7918,-0.811,-0.8112,-0.8145,-0.8167,0,0,0,-0.7552,-0.7565,-0.7584,-0.7601,-0.7656,-0.7755,-0.7773,-0.7827,-0.7845,-0.7912,-0.7919,-0.811,-0.8112,-0.8143,-0.8163,-0.8217,0,0,0,-0.7531,-0.7614,-0.7584,-0.7681,-0.7655,-0.7775,-0.7772,-0.7863,-0.7924,-0.7915,-0.811,-0.8113,-0.8142,-0.816,-0.8214,-0.8261,-0.828,0,0,-0.763,-0.7626,-0.7684,-0.7661,-0.7784,-0.7756,-0.7886,-0.7952,-0.7968,-0.8064,-0.807,-0.8147,-0.8162,-0.8217,-0.8388,-0.8402,0,0,0,-0.7712,-0.7754,-0.7789,-0.7846,-0.7898,-0.7945,-0.7993,-0.8018,-0.81,-0.8015,-0.8181,-0.8191,-0.8223,-0.8247,-0.8259,-0.8288,-0.8123,-0.8123,-0.8122,-0.7839,-0.7854,-0.7952,-0.7983,-0.804,-0.8088,-0.8136,-0.8178,-0.8178,-0.8217,-0.8245,-0.8347,-0.8374,-0.8383,-0.8413,-0.8272,-0.8272,-0.8272,-0.8272,-0.7986,-0.8048,-0.8046,-0.814,-0.8157,-0.8236,-0.8287,-0.8285,-0.8363,-0.8327,-0.8356,-0.8315,-0.8399,-0.8426,-0.8275,-0.8275,-0.8274,-0.8274,-0.8274,-0.8071,-0.8103,-0.8131,-0.8217,-0.8282,-0.8312,-0.8387,-0.84,-0.8413,-0.8442,-0.8474,-0.8473,-0.8475,-0.8456,-0.8457,-0.8457,-0.8457,-0.8457,-0.8458,-0.8147,-0.8178,-0.8238,-0.8302,-0.8341,-0.8395,-0.8446,-0.8485,-0.8533,-0.8537,-0.8537,-0.8534,-0.8404,-0.8371,-0.8463,-0.8462,-0.8462,-0.8461,-0.8461,-0.829,-0.826,-0.8354,-0.8393,-0.8469,-0.8534,-0.855,-0.863,-0.8665,-0.8702,-0.8693,-0.8594,-0.8591,-0.8581,-0.8554,-0.8688,-0.8688,-0.8688,-0.8688,-0.8361,-0.8361,-0.846,-0.8522,-0.8585,-0.861,-0.8717,-0.8759,-0.8797,-0.882,-0.8803,-0.8768,-0.8758,-0.8761,-0.8747,-0.8722,-0.8896,-0.8896,-0.8897,-0.8451,-0.8457,-0.8545,-0.8581,-0.8642,-0.8695,-0.8797,-0.887,-0.8908,-0.8905,-0.8839,-0.883,-0.8774,-0.8755,-0.875,-0.8729,-0.8683,0,0]},{"header":{"parameterUnit":"m.s-1","parameterCategory":1,"la1":30.2992,"la2":30.254,"lo1":-89.0895,"lo2":-89.0443,"dy":0.0025,"dx":0.0025,"nx":19,"ny":19,"refTime":"2026-03-19T09:00:00:Z","depth":0,"parameterNumber":3,"parameterNumberName":"V-component_of_WINDS"},"data":[0,0,0,-1.0242,-1.0243,-1.0286,-1.0286,-1.0347,-1.0347,0,0,0,0,0,0,0,0,0,0,0,-1.0235,-1.0235,-1.0242,-1.0244,-1.0286,-1.0286,-1.0347,-1.0347,0,0,0,0,0,0,0,0,0,0,0,-1.0235,-1.0235,-1.0236,-1.0244,-1.0286,-1.0286,-1.0347,-1.0312,0,0,0,0,0,0,0,0,0,0,-1.027,-1.0268,-1.0235,-1.0236,-1.0244,-1.0285,-1.0286,-1.031,-1.0314,-1.0331,0,-1.0347,0,-1.0348,-1.0352,-1.0352,0,0,0,-1.024,-1.0265,-1.0271,-1.0236,-1.0244,-1.0285,-1.0266,-1.0312,-1.0317,-1.0336,-1.0348,-1.035,-1.0349,-1.0352,-1.0353,-1.0463,-1.0463,0,0,-1.0238,-1.0245,-1.0268,-1.0275,-1.0269,-1.0264,-1.0267,-1.0315,-1.0328,-1.0348,-1.0352,-1.0351,-1.0353,-1.0353,-1.0462,-1.0463,0,0,0,-1.0233,-1.0244,-1.0249,-1.0272,-1.0279,-1.0266,-1.0269,-1.0326,-1.0328,-1.0352,-1.0351,-1.0353,-1.0354,-1.0461,-1.0462,-1.0505,0,0,0,-1.0232,-1.0241,-1.0248,-1.0253,-1.0279,-1.0303,-1.0279,-1.0324,-1.0329,-1.0351,-1.0353,-1.0355,-1.0461,-1.0462,-1.0502,-1.0524,0,0,0,-1.023,-1.0241,-1.0249,-1.0254,-1.0272,-1.0303,-1.0306,-1.0325,-1.0329,-1.0352,-1.0355,-1.046,-1.0462,-1.05,-1.052,-1.0557,0,0,0,-1.0231,-1.0285,-1.0249,-1.0309,-1.0272,-1.0328,-1.0306,-1.0347,-1.0372,-1.0354,-1.0461,-1.0462,-1.0499,-1.0517,-1.0554,-1.059,-1.0605,0,0,-1.0303,-1.0294,-1.0328,-1.0298,-1.0363,-1.0321,-1.0392,-1.0407,-1.0402,-1.0443,-1.0445,-1.0503,-1.052,-1.0556,-1.0685,-1.0697,0,0,0,-1.0354,-1.0379,-1.0394,-1.0419,-1.0432,-1.0445,-1.0449,-1.0454,-1.0489,-1.0425,-1.0525,-1.0534,-1.0555,-1.0572,-1.0583,-1.0601,-1.047,-1.047,-1.047,-1.0468,-1.0458,-1.0515,-1.0511,-1.0535,-1.0538,-1.0557,-1.0565,-1.0548,-1.0572,-1.0585,-1.0664,-1.0684,-1.0692,-1.0711,-1.0601,-1.0601,-1.0602,-1.0602,-1.0574,-1.0609,-1.0585,-1.0632,-1.0622,-1.0661,-1.0666,-1.0653,-1.0688,-1.0653,-1.0671,-1.0636,-1.0705,-1.0722,-1.0605,-1.0604,-1.0604,-1.0603,-1.0603,-1.0649,-1.0664,-1.067,-1.0705,-1.0732,-1.0725,-1.076,-1.0749,-1.0739,-1.0756,-1.0769,-1.0769,-1.0768,-1.0763,-1.0763,-1.0763,-1.0764,-1.0764,-1.0764,-1.0726,-1.0731,-1.0762,-1.0781,-1.0795,-1.0812,-1.0815,-1.0829,-1.0841,-1.0831,-1.0831,-1.0813,-1.0713,-1.069,-1.0768,-1.0768,-1.0767,-1.0767,-1.0766,-1.0841,-1.0813,-1.0861,-1.0876,-1.0896,-1.0925,-1.0909,-1.0938,-1.0948,-1.0965,-1.0943,-1.087,-1.086,-1.0852,-1.0833,-1.0944,-1.0944,-1.0944,-1.0944,-1.0906,-1.0899,-1.0946,-1.097,-1.0992,-1.0983,-1.1038,-1.1041,-1.1039,-1.1045,-1.1026,-1.0999,-1.0991,-1.0985,-1.0974,-1.0956,-1.1096,-1.1096,-1.1096,-1.0977,-1.0971,-1.1021,-1.102,-1.1035,-1.1048,-1.11,-1.1128,-1.112,-1.1102,-1.1049,-1.1043,-1.0998,-1.0984,-1.0967,-1.095,-1.0916,0,0]}]]